Wetbulb
41.51 37.52 36.33 39.15 41.44 43.22 44.35 44.60 43.82 47.02 50.04 48.40 47.67 48.52 50.83 53.20 52.79 52.82 53.62 53.74 55.06 55.56 57.19 57.31 59.28 60.24 62.63 63.90 65.37 66.37 68.08 68.04 69.61 68.67 66.79 65.03 63.78 63.35 63.36 64.05 64.58 65.92 66.39 66.54
39.08 35.10 41.01 44.36 43.74 42.53 42.43 40.61 41.02 46.09 49.94 48.42 47.65 47.33 50.91 52.74 52.56 53.45 53.90 54.46 54.68 54.48 56.29 58.42 59.33 62.57 62.29 63.64 65.11 65.32 66.72 67.68 67.62 67.34 65.65 64.64 63.90 63.28 63.25 63.44 64.21 65.06 65.34 64.81
36.96 39.55 44.05 43.11 42.25 41.35 40.74 39.69 40.43 40.85 44.98 46.58 45.20 43.35 46.26 50.00 51.78 53.59 54.34 55.10 54.85 54.82 54.84 55.75 59.50 61.29 62.53 63.45 63.75 64.39 66.22 67.06 66.70 66.27 65.42 64.87 64.10 63.47 62.68 62.61 63.53 64.50 65.13 65.11
36.46 41.49 42.78 41.09 40.33 42.65 37.95 43.98 43.50 42.78 41.51 36.95 44.15 35.60 43.42 46.88 48.57 51.01 52.94 53.88 53.56 54.66 56.08 55.72 59.79 61.22 62.25 63.10 64.05 65.18 66.79 66.16 66.10 64.82 64.10 62.90 61.02 60.02 61.05 61.05 62.96 64.35 64.47 64.32
34.61 37.18 38.41 39.33 40.38 43.62 40.44 45.97 43.69 43.40 40.70 39.57 40.60 35.99 42.27 46.48 46.60 49.03 51.38 52.99 53.47 53.80 54.69 55.26 60.52 62.86 62.97 63.56 63.86 65.47 65.68 64.85 65.44 64.18 64.16 63.01 61.85 62.03 61.58 61.80 62.30 62.68 63.18 64.17
37.90 41.88 39.79 38.69 41.53 44.38 44.77 43.36 42.64 42.09 39.62 33.14 39.08 38.87 39.70 42.51 45.60 47.91 51.04 52.55 53.11 52.70 54.09 59.84 62.69 63.21 63.05 64.21 64.75 64.94 64.54 64.32 64.41 64.42 64.01 61.92 61.03 61.00 61.03 60.80 60.85 61.03 62.17 62.72
37.75 38.18 40.69 41.67 37.59 40.49 40.82 37.30 30.28 29.82 31.14 31.10 40.57 38.58 41.68 45.06 48.50 50.19 50.81 51.59 53.00 53.92 55.15 60.99 61.31 61.92 62.45 63.37 64.28 64.21 63.81 63.39 63.51 64.41 63.48 63.09 61.68 61.11 60.05 61.16 59.99 60.62 61.10 61.52
32.27 30.23 40.19 43.86 38.55 35.62 36.52 37.47 31.61 25.17 28.52 32.55 40.97 36.27 40.01 48.69 51.28 51.86 52.59 52.47 53.83 53.50 59.75 60.73 61.31 61.55 62.55 63.78 63.85 63.46 63.59 63.11 63.34 63.07 62.32 62.57 62.13 60.87 61.64 61.58 61.62 61.62 61.03 60.90
31.20 31.62 41.54 40.89 41.38 40.26 36.32 33.60 40.26 34.82 37.46 33.16 37.29 41.56 45.63 47.73 48.39 50.61 51.28 53.24 53.24 57.63 60.11 60.35 60.94 61.64 62.88 63.23 62.94 63.12 63.18 63.16 63.27 62.63 62.42 62.13 62.09 62.37 61.74 62.03 62.89 61.81 62.08 63.14
35.79 28.29 37.78 39.12 42.02 43.71 40.46 40.68 33.50 36.05 28.06 27.27 35.76 38.04 38.60 44.45 47.07 49.98 50.94 51.14 55.68 59.23 59.76 60.34 60.76 61.85 62.98 63.29 62.57 63.22 63.14 62.90 62.76 62.65 62.04 62.01 61.67 62.45 62.31 62.06 62.08 61.86 61.90 61.80
35.44 32.98 33.23 38.14 36.10 36.63 37.98 35.43 36.17 36.04 36.09 30.82 30.47 35.40 44.96 46.00 50.44 48.83 50.85 51.98 57.76 58.68 59.44 60.19 61.00 62.27 62.70 62.85 63.25 62.81 62.78 62.47 62.00 62.01 61.32 63.35 62.15 62.53 61.98 62.15 62.56 61.76 61.20 61.36
38.15 34.90 30.65 33.32 40.44 42.99 41.59 37.72 36.94 32.41 31.79 36.68 36.16 36.87 47.15 49.13 49.87 50.97 51.66 53.11 58.58 59.25 59.97 60.40 61.58 62.07 61.90 61.69 62.85 62.13 61.95 61.30 61.64 62.02 61.58 63.20 62.42 62.32 61.84 62.14 62.29 61.75 61.47 61.74
36.64 31.95 27.94 30.05 35.87 40.34 38.68 41.59 40.50 38.87 38.92 35.33 33.56 37.18 47.83 49.24 50.19 51.88 50.52 56.71 58.71 59.12 59.61 60.41 61.02 61.18 61.20 61.67 62.35 61.82 60.88 60.78 61.37 61.71 62.25 63.22 61.31 61.65 61.29 61.82 62.42 62.47 61.85 61.65
40.75 33.78 31.20 26.56 31.11 36.22 35.33 37.51 39.46 37.12 35.48 36.75 38.68 40.56 45.08 48.59 50.23 51.56 53.42 57.83 58.63 59.02 59.53 60.17 60.41 60.69 61.00 62.06 61.66 60.82 60.14 61.05 60.75 63.03 60.83 61.61 61.38 61.30 61.18 61.67 62.11 61.72 61.95 62.80
38.00 31.12 33.86 34.89 37.23 37.84 35.20 35.48 37.07 35.08 37.43 36.80 40.44 41.97 44.87 48.69 52.67 53.30 56.44 57.98 58.02 58.42 59.13 59.87 59.73 60.30 60.83 60.71 59.95 60.37 59.88 60.51 60.02 61.52 62.82 62.19 61.70 61.60 61.86 62.13 61.89 62.07 61.48 62.13
40.24 31.40 34.70 33.85 37.75 38.03 34.21 36.77 37.52 37.12 38.37 40.10 42.76 42.87 48.90 54.55 57.56 56.83 57.00 57.86 57.85 58.61 59.47 60.14 60.57 60.91 60.76 59.88 59.32 59.66 59.17 59.78 59.32 62.14 62.24 63.06 62.02 62.33 61.22 61.20 61.76 61.63 61.06 60.82
36.37 34.34 34.56 30.11 36.81 35.45 30.37 35.45 36.53 38.08 40.47 41.42 40.00 45.85 51.61 51.64 53.73 54.52 56.07 57.87 58.16 59.14 59.82 60.10 61.04 61.20 60.68 59.14 59.25 57.76 58.68 58.94 59.47 62.14 62.87 63.15 62.02 62.16 61.70 62.68 62.02 61.29 59.97 59.47
34.07 32.88 35.17 32.97 33.95 24.20 36.30 42.55 43.29 42.51 43.58 46.63 47.86 50.39 51.57 53.11 53.84 56.00 56.02 56.85 58.56 59.68 60.14 60.58 60.98 60.84 60.03 58.70 59.21 58.86 59.06 58.42 59.59 61.70 62.28 62.62 62.50 61.88 61.74 61.63 61.00 60.07 59.82 59.34
38.63 35.42 32.97 30.99 32.21 34.99 37.70 43.27 43.08 42.61 44.80 50.15 49.83 51.35 53.35 55.19 54.45 52.94 56.69 57.63 57.53 59.78 60.68 60.88 61.74 61.49 59.63 59.42 59.19 59.48 57.86 58.06 58.93 61.55 61.67 62.53 62.70 61.61 61.77 61.55 60.62 60.55 60.16 60.11
39.73 39.34 34.29 33.21 29.06 28.26 38.14 41.84 45.07 46.38 40.69 50.54 51.23 51.68 52.56 52.73 46.86 49.31 55.31 57.40 57.26 60.11 61.40 61.55 62.45 61.49 59.17 59.22 59.27 58.56 57.07 56.99 57.51 60.81 62.06 62.76 62.81 62.09 61.71 61.41 60.83 60.93 60.61 59.95
34.48 34.90 31.33 32.33 32.45 35.11 39.23 43.47 46.59 39.20 41.83 51.61 52.21 52.22 51.85 49.92 51.59 53.31 55.65 57.15 58.73 59.02 61.42 62.80 62.59 60.92 59.40 59.60 59.20 57.85 56.63 56.09 58.22 60.99 62.69 62.49 62.01 61.98 62.20 61.49 61.22 60.87 60.75 59.34
32.87 33.42 33.80 34.89 32.31 29.49 43.79 43.82 42.39 46.30 49.64 50.38 51.78 51.77 51.54 52.85 54.78 55.54 56.74 57.15 58.99 59.02 60.97 62.50 62.01 60.60 60.03 60.05 59.42 57.21 56.19 57.54 58.98 59.80 62.40 62.24 62.62 64.17 62.77 61.81 61.19 61.15 59.72 57.03
34.43 37.09 33.03 32.89 34.26 43.18 44.63 44.56 47.33 48.46 49.12 48.94 49.99 52.25 52.86 52.57 53.78 55.97 57.00 57.63 58.76 58.25 59.32 59.29 62.43 60.65 60.06 59.98 59.64 57.49 57.76 57.96 58.71 58.79 61.34 61.36 61.28 63.09 62.25 61.86 61.05 60.91 59.30 57.17
39.24 42.63 39.22 37.93 37.70 41.19 44.78 46.34 47.54 48.70 49.44 49.87 50.87 51.55 52.15 52.03 53.66 55.52 57.94 57.99 58.75 59.23 59.75 61.18 62.61 60.54 59.27 59.70 59.88 59.68 59.45 58.89 58.85 60.15 60.26 60.46 60.80 60.26 62.05 62.69 62.32 61.27 60.26 58.45
39.94 41.43 39.05 39.24 41.76 43.10 44.35 45.43 46.51 48.43 49.01 50.69 51.22 51.07 51.79 52.13 53.37 55.43 55.67 57.05 59.78 59.30 60.19 62.30 62.69 61.50 60.03 60.06 59.73 60.41 60.11 58.67 59.15 60.60 59.87 60.18 60.37 59.43 60.66 57.19 57.87 60.63 61.10 60.02
41.50 39.07 36.20 35.93 41.27 40.92 41.62 45.10 47.29 47.74 47.65 49.10 50.45 50.02 51.45 52.42 53.15 55.16 55.09 56.56 58.53 59.89 60.11 60.70 63.00 62.32 61.14 60.69 60.29 60.45 60.34 59.12 59.80 60.02 59.80 59.58 59.74 58.65 57.50 53.65 51.78 43.25 42.46 48.76
MSLP
1006.67 1006.91 1005.49 1003.27 1005.51 1005.63 1004.68 1003.16 1002.14 1001.85 1002.12 1001.79 1000.95 1000.46 999.02 998.71 998.73 998.14 997.89 998.11 997.72 997.58 997.41 997.40 997.47 998.01 998.52 998.80 999.20 999.66 1000.30 1000.94 1001.33 1002.17 1002.92 1003.66 1004.27 1004.69 1004.95 1005.23 1005.63 1006.08 1006.33 1006.84
1006.91 1005.04 1003.89 1005.57 1005.06 1005.20 1004.38 1003.48 1002.51 1001.83 1001.67 1001.01 1000.25 1000.07 998.70 998.13 997.67 997.31 997.24 997.16 996.99 997.08 996.98 996.84 997.11 997.92 998.71 999.24 999.67 1000.04 1000.57 1001.16 1001.71 1002.21 1002.88 1003.43 1004.06 1004.44 1004.71 1005.09 1005.48 1005.82 1006.30 1006.82
1005.90 1004.24 1004.89 1004.96 1004.58 1004.32 1003.58 1002.89 1003.18 1002.22 1002.43 1000.79 1000.47 1000.01 998.85 997.55 996.79 996.51 996.41 996.13 996.30 996.45 996.52 996.54 997.18 997.85 998.56 999.17 999.97 1000.12 1000.76 1001.49 1001.92 1002.32 1002.96 1003.56 1004.09 1004.52 1005.09 1005.43 1005.61 1005.95 1006.28 1006.63
1005.20 1004.69 1004.18 1003.67 1003.15 1003.78 1002.65 1003.00 1002.74 1002.63 1002.74 1000.52 1001.24 1000.27 998.65 997.47 996.42 996.36 995.95 995.89 995.76 995.51 995.61 995.92 996.87 997.97 998.67 999.41 999.77 1000.30 1000.92 1001.59 1002.03 1002.40 1003.15 1003.66 1004.39 1004.87 1004.99 1005.40 1005.59 1005.92 1006.18 1006.59
1003.56 1003.96 1003.57 1003.12 1002.83 1002.85 1001.86 1002.17 1002.35 1002.27 1001.88 1001.73 1001.08 1000.97 995.80 996.99 996.18 995.78 995.49 995.38 995.13 994.91 995.20 995.47 996.37 997.66 998.72 999.16 999.95 1000.46 1001.04 1001.72 1002.13 1002.62 1003.13 1003.70 1004.28 1004.62 1004.89 1005.34 1005.72 1006.03 1006.28 1006.61
1004.11 1004.14 1003.75 1003.03 1002.74 1002.32 1002.56 1002.19 1002.39 1002.30 1002.16 1001.55 1000.15 1000.34 994.02 995.97 995.54 995.16 995.12 994.47 994.19 994.32 994.64 995.34 996.25 997.56 998.65 999.45 1000.00 1000.87 1001.36 1001.94 1002.46 1002.85 1003.26 1003.82 1004.36 1004.86 1005.31 1005.74 1006.13 1006.40 1006.47 1006.52
1004.21 1003.77 1003.28 1002.96 1002.72 1002.32 1002.16 1002.49 1002.63 1002.37 1001.78 999.75 1000.04 999.37 994.66 994.13 994.32 994.31 994.12 993.94 993.89 993.96 994.54 995.75 996.61 997.88 998.81 999.48 1000.27 1001.20 1001.62 1002.23 1002.61 1003.03 1003.57 1004.02 1004.45 1004.90 1005.32 1005.64 1005.93 1006.21 1006.43 1006.62
1005.01 1004.39 1003.30 1002.57 1002.40 1002.53 1001.77 1002.09 1001.86 1001.35 1000.52 999.95 999.79 995.96 994.74 993.97 993.12 993.12 993.03 993.16 993.06 993.36 994.58 995.69 996.88 997.76 998.77 999.63 1000.54 1001.17 1001.79 1002.39 1002.80 1003.38 1003.79 1004.09 1004.39 1004.96 1005.34 1005.57 1005.82 1006.07 1006.33 1006.42
1006.14 1004.91 1003.80 1003.32 1002.92 1002.33 1001.54 1001.27 1000.55 1001.54 1000.61 999.87 997.94 995.86 994.05 993.31 992.57 992.38 992.48 992.67 993.00 993.81 994.71 995.84 996.94 997.99 998.91 999.81 1000.66 1001.21 1001.83 1002.47 1003.05 1003.49 1003.91 1004.29 1004.60 1005.10 1005.39 1005.54 1005.64 1005.92 1006.05 1006.28
1007.01 1006.05 1004.78 1003.49 1002.66 1001.75 1001.54 1000.86 1001.36 1000.29 1000.43 999.73 997.30 995.71 994.27 992.44 991.75 990.87 991.77 992.32 993.05 994.03 995.14 996.21 997.09 998.16 999.05 1000.03 1000.61 1001.15 1001.87 1002.65 1003.12 1003.56 1003.99 1004.39 1004.60 1004.85 1005.24 1005.43 1005.65 1005.75 1005.97 1006.17
1007.17 1006.84 1005.01 1004.69 1003.06 1002.28 1001.27 1000.51 1000.87 1000.52 999.84 999.36 997.81 994.80 993.09 992.19 990.49 990.38 991.12 991.71 992.97 993.94 995.14 996.16 997.14 998.02 999.04 999.93 1000.54 1001.24 1001.98 1002.62 1003.18 1003.57 1004.03 1004.28 1004.61 1004.80 1005.08 1005.36 1005.46 1005.66 1005.88 1006.03
1008.13 1007.62 1006.38 1004.91 1003.11 1002.26 1001.70 1000.60 1000.60 1000.72 999.72 998.82 997.25 993.75 992.50 991.45 990.32 989.75 990.43 991.45 992.61 993.69 995.00 995.91 996.89 997.90 999.01 999.82 1000.54 1001.33 1001.96 1002.59 1003.05 1003.56 1004.01 1004.32 1004.68 1004.94 1005.28 1005.47 1005.55 1005.63 1005.83 1006.02
1008.42 1008.16 1007.16 1004.42 1002.83 1001.96 1001.62 1000.79 1000.33 1000.16 1000.04 998.04 996.65 993.74 992.16 991.17 990.32 990.01 990.37 991.36 992.49 993.63 994.83 995.77 996.79 997.88 999.00 999.84 1000.53 1001.24 1001.89 1002.45 1002.91 1003.51 1003.96 1004.37 1004.82 1005.06 1005.32 1005.53 1005.65 1005.69 1005.77 1005.87
1008.86 1008.79 1007.96 1006.74 1004.69 1004.93 1003.56 1002.49 1001.78 1001.61 999.14 997.60 995.23 994.39 991.95 990.99 990.48 989.96 990.39 991.10 992.19 993.30 994.32 995.54 996.74 997.85 998.88 999.77 1000.45 1001.16 1001.78 1002.21 1002.78 1003.36 1003.98 1004.41 1004.74 1005.05 1005.29 1005.44 1005.59 1005.76 1005.78 1005.73
1008.99 1008.56 1007.77 1006.53 1005.09 1004.23 1003.89 1003.08 1002.17 1001.57 1000.01 997.06 995.05 993.16 991.98 990.99 990.04 989.93 990.32 991.12 992.22 993.28 994.19 995.27 996.43 997.70 998.75 999.60 1000.32 1000.98 1001.50 1002.06 1002.58 1003.34 1003.83 1004.33 1004.69 1004.99 1005.22 1005.46 1005.64 1005.83 1005.90 1005.93
1008.71 1008.23 1007.34 1005.74 1004.24 1003.39 1003.30 1002.25 1001.55 1001.13 999.38 997.45 994.39 992.58 991.83 990.43 990.04 990.66 990.92 991.52 992.27 993.02 993.97 995.08 996.24 997.34 998.40 999.23 1000.05 1000.72 1001.44 1001.92 1002.43 1003.27 1003.85 1004.30 1004.74 1005.14 1005.33 1005.56 1005.83 1006.09 1006.37 1006.65
1007.75 1007.42 1006.93 1005.19 1003.23 1003.32 1003.01 1001.09 1000.78 999.92 998.53 997.05 994.27 992.79 992.43 991.21 991.58 991.52 991.25 991.58 992.33 992.95 993.69 994.71 995.80 996.84 997.92 998.78 999.67 1000.50 1001.24 1001.68 1002.47 1003.21 1003.78 1004.23 1004.73 1005.07 1005.35 1005.66 1006.01 1006.37 1006.72 1007.02
1006.14 1006.35 1006.76 1005.25 1004.01 1002.95 1000.54 1000.03 999.94 999.27 997.34 995.75 994.18 991.63 993.91 991.44 992.67 992.74 991.88 991.73 992.23 992.73 993.47 994.47 995.63 996.67 997.61 998.44 999.42 1000.18 1000.87 1001.58 1002.34 1003.09 1003.66 1004.14 1004.56 1004.92 1005.44 1005.84 1006.22 1006.54 1006.90 1007.18
1004.67 1005.31 1006.14 1005.05 1003.89 1002.44 1001.03 1001.38 1001.22 1000.42 997.86 995.50 992.80 991.47 993.28 993.01 992.79 993.53 993.25 992.55 992.54 992.67 993.34 994.24 995.33 996.43 997.42 998.32 999.27 1000.03 1000.89 1001.46 1002.08 1002.92 1003.40 1003.86 1004.35 1004.92 1005.51 1005.96 1006.36 1006.69 1007.08 1007.42
1003.48 1004.32 1005.46 1005.11 1004.55 1003.45 1002.52 1001.33 1000.87 1000.15 998.98 997.38 994.73 994.57 995.87 993.52 994.03 994.52 994.13 993.77 993.22 992.68 993.09 994.14 995.17 996.35 997.39 998.29 999.05 1000.01 1000.78 1001.39 1001.83 1002.40 1002.98 1003.55 1004.18 1004.80 1005.43 1005.90 1006.34 1006.66 1007.08 1007.51
1004.20 1004.32 1005.01 1004.96 1004.17 1003.32 1003.03 1001.90 1000.94 1001.04 1000.45 998.19 996.30 995.78 995.67 995.38 994.65 994.28 994.36 994.28 993.57 993.17 993.17 993.94 994.92 996.15 997.23 998.04 998.93 999.93 1000.57 1001.11 1001.39 1001.77 1002.62 1003.43 1004.17 1004.69 1005.29 1005.89 1006.32 1006.70 1007.20 1007.68
1005.59 1005.91 1005.35 1004.92 1004.96 1004.64 1004.43 1002.63 1002.07 1001.61 1000.07 998.01 996.78 996.32 996.23 995.47 994.25 994.21 994.46 994.35 993.81 993.65 993.82 994.09 994.95 996.03 996.96 997.77 998.71 999.71 1000.40 1000.55 1001.00 1001.52 1002.59 1003.46 1004.22 1004.75 1005.40 1005.95 1006.45 1006.85 1007.40 1007.94
1006.65 1006.72 1006.73 1006.67 1006.60 1005.80 1004.92 1004.51 1001.73 1001.74 1000.34 997.57 996.76 996.82 996.47 995.72 994.98 994.63 994.70 994.62 994.19 994.48 993.93 995.00 995.27 996.00 996.83 997.52 998.37 999.40 1000.04 1000.19 1000.77 1001.53 1002.56 1003.47 1004.06 1004.71 1005.41 1005.99 1006.51 1007.07 1007.65 1008.04
1007.34 1006.89 1006.68 1006.89 1006.89 1005.99 1004.95 1004.05 1002.74 1000.67 998.49 997.86 997.65 997.14 996.71 995.95 995.29 995.00 994.77 994.80 994.73 995.13 995.05 995.33 995.77 995.95 996.82 997.39 998.12 998.87 999.57 999.89 1000.62 1001.64 1002.45 1003.26 1003.91 1004.72 1005.38 1005.94 1006.41 1006.94 1007.48 1007.81
1007.61 1006.84 1006.53 1006.45 1006.34 1005.67 1004.71 1003.41 1001.82 1000.40 999.60 998.67 998.20 997.64 997.29 996.69 996.05 995.58 995.25 994.93 995.00 995.00 995.37 995.16 995.45 995.69 996.38 997.08 997.85 998.45 999.09 999.65 1000.61 1001.43 1002.26 1003.17 1003.83 1004.60 1005.31 1005.97 1006.63 1006.62 1006.65 1006.78
1007.37 1006.97 1007.06 1006.90 1006.27 1005.92 1004.83 1003.84 1003.21 1002.05 1000.64 999.61 998.53 997.97 997.41 997.11 996.46 995.98 995.68 995.26 995.05 995.06 994.94 995.01 995.20 995.74 995.84 996.56 997.35 998.02 998.64 999.41 1000.30 1001.31 1002.07 1002.85 1003.66 1004.39 1005.16 1005.91 1006.71 1006.57 1006.62 1006.27
Wind_Speed
8 9 21 33 20 15 16 25 20 16 19 17 23 25 27 17 11 16 17 9 10 10 11 9 9 3 8 7 8 8 11 8 9 7 5 4 5 3 2 4 7 8 6 7
9 24 23 15 17 21 24 24 20 14 13 17 21 18 23 20 17 22 21 18 12 8 8 7 6 9 6 8 8 9 8 8 6 5 4 4 4 3 4 4 5 7 7 7
16 13 17 19 20 21 26 26 16 22 14 23 16 16 18 17 11 9 10 14 9 12 11 10 6 10 9 9 9 9 8 8 7 7 5 4 4 3 3 2 2 4 6 6
17 17 21 20 27 20 25 13 22 21 14 22 6 15 22 17 21 15 19 15 11 12 9 9 8 9 10 8 9 8 9 9 7 8 5 4 4 3 3 4 3 4 6 6
23 13 9 19 21 18 22 14 19 15 18 17 17 6 28 9 12 9 11 14 12 10 10 11 12 13 10 10 8 9 9 8 6 7 7 5 5 2 3 4 7 4 3 4
19 13 19 16 17 18 17 17 21 16 12 13 15 14 33 18 19 6 9 13 9 10 10 11 15 15 12 10 10 9 9 6 7 7 7 7 5 6 4 4 4 3 2 1
14 18 20 19 19 17 15 13 8 9 12 18 11 11 23 5 12 12 16 12 10 9 6 16 18 15 13 13 11 8 8 7 7 8 7 7 7 6 5 5 3 2 0 1
3 7 8 9 20 15 13 13 11 17 13 12 11 15 11 16 19 17 20 15 10 10 14 17 15 15 15 14 12 10 9 8 8 8 7 6 6 2 2 3 2 3 2 2
3 8 11 22 17 14 21 20 13 13 20 6 8 19 24 23 24 18 15 8 9 11 18 17 16 13 14 14 12 10 10 7 7 8 7 6 4 5 4 4 4 3 4 3
1 10 9 17 14 15 14 10 6 12 18 16 11 17 11 17 16 18 9 10 9 17 16 16 14 14 13 12 9 10 9 8 8 8 7 5 7 6 6 4 4 5 4 3
3 6 12 8 4 9 9 18 13 6 12 12 10 14 15 10 11 9 10 11 17 18 17 16 14 14 14 11 12 9 9 8 8 8 6 6 5 6 5 4 5 4 4 7
4 2 7 13 18 16 16 20 16 10 8 10 11 14 9 11 1 8 12 12 19 19 18 16 17 16 14 11 11 9 8 8 8 7 7 6 6 6 6 5 4 4 4 5
2 2 6 7 7 9 7 8 9 9 14 18 17 11 11 12 7 7 10 18 19 19 18 16 16 15 13 11 10 8 9 8 7 7 7 7 7 6 6 5 5 4 3 3
5 4 8 7 16 5 10 19 16 9 11 14 16 17 13 13 10 7 13 21 21 20 20 18 15 14 12 12 10 8 8 9 7 10 8 7 7 6 5 5 4 4 2 4
3 6 8 15 20 12 14 19 19 14 17 11 15 16 16 13 5 8 18 20 21 20 20 18 16 14 11 12 10 8 7 8 7 9 8 7 7 6 6 6 5 4 4 5
6 5 11 16 17 13 12 21 19 18 23 17 20 17 9 4 12 12 15 18 19 19 20 18 17 16 14 13 12 10 8 8 8 11 7 7 7 6 6 6 6 6 7 7
8 6 5 7 5 8 8 18 17 14 19 19 19 7 9 13 15 1 13 17 18 18 20 18 18 16 14 13 12 9 9 8 9 11 8 8 7 6 6 6 6 6 6 6
14 11 2 5 1 5 3 7 15 16 23 20 21 17 16 11 9 16 8 10 16 17 20 16 15 13 14 10 12 9 9 8 8 12 10 9 7 7 6 7 6 6 5 6
17 8 2 3 4 9 8 5 10 12 3 16 14 14 11 3 11 8 10 10 5 15 15 13 14 14 12 14 11 13 9 9 8 13 10 9 8 7 7 7 6 5 6 5
12 9 5 3 2 4 3 18 23 24 5 16 12 22 6 8 8 3 6 6 8 8 15 15 16 15 14 13 12 13 10 8 7 12 12 10 9 8 7 7 6 4 5 5
2 3 5 5 4 3 7 22 28 3 3 11 9 12 8 4 4 2 2 5 5 6 15 17 18 15 14 14 12 12 9 8 8 9 14 10 8 9 8 7 4 5 7 6
3 5 3 3 2 4 18 22 6 7 11 3 10 8 5 6 8 7 7 5 7 8 11 13 16 15 13 14 13 10 9 8 8 8 14 9 11 9 7 9 6 6 7 7
3 4 3 5 5 9 12 16 17 15 14 14 14 13 9 7 7 6 5 6 6 5 4 4 11 15 13 14 13 10 10 8 8 9 15 13 10 10 9 9 7 7 7 6
4 9 1 5 6 10 7 13 14 14 13 15 14 13 14 10 9 11 10 6 5 9 3 5 13 15 13 13 12 10 10 8 10 13 12 10 12 7 8 6 7 7 6 6
3 8 10 3 4 4 8 14 19 22 19 16 14 13 14 15 10 10 10 12 10 2 7 5 13 15 15 14 11 9 11 8 11 14 11 10 9 8 6 3 2 5 7 10
3 5 5 4 12 7 12 15 16 12 14 16 15 18 16 14 10 12 11 10 10 11 5 2 15 13 16 15 13 9 11 9 13 13 10 9 9 7 6 5 4 8 5 13
Wind_Direction
253 212 220 220 219 232 252 236 249 248 240 260 254 258 267 262 251 264 273 269 243 219 225 235 236 210 119 104 109 131 138 148 139 146 130 124 137 137 106 142 162 159 172 177
234 231 230 237 229 231 246 262 266 275 248 247 250 259 261 253 253 250 256 256 246 236 224 231 187 150 143 133 126 114 117 131 118 122 118 127 134 148 166 175 190 170 163 164
232 245 221 236 234 233 231 241 251 258 284 282 289 289 280 281 268 265 249 247 237 211 218 230 170 152 141 139 143 136 129 128 121 133 116 98 83 64 72 94 158 158 145 155
259 253 241 246 227 230 240 236 238 254 253 254 189 267 263 266 264 261 265 272 242 226 219 215 145 149 144 148 135 125 123 124 125 136 110 131 139 137 168 170 141 145 151 170
241 280 255 242 250 234 251 237 245 247 242 262 257 278 264 212 248 244 257 251 240 235 218 223 157 146 146 131 126 116 118 122 124 137 134 123 110 129 137 115 116 121 115 136
253 244 260 264 274 246 263 241 248 259 260 263 242 223 267 243 248 244 252 252 243 243 238 132 128 130 126 120 113 121 126 130 128 113 128 128 124 88 92 105 126 151 161 158
248 246 244 253 269 275 261 231 249 244 230 237 217 242 234 242 235 218 243 244 248 234 149 138 138 135 136 129 123 130 123 127 125 103 115 105 109 105 109 110 121 121 98 142
271 296 260 256 235 254 256 234 216 214 223 248 249 241 233 234 259 239 241 248 246 209 136 138 138 136 137 131 135 135 127 129 124 123 120 113 114 110 89 134 133 132 152 156
355 263 307 306 300 239 251 250 248 259 278 239 235 244 263 260 260 257 246 218 199 121 132 135 133 135 135 137 143 136 130 133 138 135 128 132 151 139 154 146 120 145 142 157
21 287 259 284 292 276 234 265 241 222 235 250 254 245 249 266 266 245 211 185 130 126 127 129 133 134 134 142 135 131 135 148 150 138 139 168 178 143 143 136 136 147 166 149
333 229 277 294 251 262 269 238 239 278 216 226 260 256 260 264 238 186 187 149 140 139 139 140 136 133 136 137 138 138 139 144 140 141 170 154 160 125 119 126 138 162 137 154
72 240 280 264 281 274 289 256 231 229 255 234 266 250 257 264 222 143 164 138 144 140 142 140 135 135 140 137 139 141 139 142 149 157 152 155 125 123 126 128 144 167 151 163
53 335 305 299 240 244 262 297 258 237 232 218 234 264 261 296 283 211 165 141 140 137 137 136 136 139 144 140 145 139 148 150 159 144 148 126 130 130 138 152 166 167 174 162
99 254 230 268 287 310 297 318 323 341 239 235 227 250 250 238 227 251 138 138 141 143 142 140 139 142 145 144 145 143 152 153 163 147 141 135 138 143 143 133 143 145 156 175
144 252 244 271 275 256 269 285 295 310 288 249 235 229 236 253 164 129 142 134 137 142 144 146 142 147 146 147 146 151 149 154 153 138 138 140 147 149 150 152 133 108 87 103
172 263 293 282 266 230 243 271 285 285 282 283 247 251 299 90 135 127 131 138 143 147 145 146 146 151 150 152 151 153 148 148 130 138 137 139 138 146 145 134 123 104 90 84
229 243 308 292 122 107 236 242 253 264 266 263 259 210 283 69 33 299 146 147 150 152 149 152 154 154 152 147 149 148 147 141 127 141 141 136 144 147 144 139 123 117 118 113
248 255 234 271 197 211 269 296 309 278 259 276 273 148 242 111 98 12 19 148 156 150 152 152 151 145 149 139 147 136 138 140 134 147 147 148 158 142 134 120 126 123 123 126
218 221 261 282 300 312 317 31 355 339 303 345 126 115 23 108 90 38 6 22 147 151 154 147 144 144 140 141 144 138 137 144 150 157 159 160 146 140 140 134 141 136 124 119
210 195 151 288 195 286 281 331 329 327 61 346 13 65 1 24 71 295 340 6 14 139 146 141 139 142 139 148 140 139 149 154 168 155 164 159 146 146 145 147 150 137 131 119
168 158 198 241 285 296 342 324 311 176 156 326 39 78 26 353 156 208 26 28 2 56 143 140 142 146 147 148 140 145 153 169 173 167 150 148 137 138 141 136 131 123 126 128
14 304 345 295 116 291 9 330 5 333 310 325 20 39 1 329 30 37 55 59 33 35 86 137 140 144 147 150 145 145 162 185 155 152 146 132 141 140 136 134 136 124 121 117
40 38 326 359 1 335 1 312 350 318 254 35 22 13 354 355 356 2 59 76 64 80 97 41 153 143 148 153 155 144 182 170 148 126 137 143 140 137 144 142 143 132 130 137
294 15 183 167 343 319 310 324 322 336 8 17 14 3 352 345 3 7 10 53 107 144 213 256 163 151 153 158 160 152 173 162 140 133 142 132 136 131 144 153 152 148 153 154
316 311 340 121 353 322 329 352 334 342 355 356 2 356 350 348 1 7 7 8 4 9 147 195 169 163 160 158 163 152 170 147 139 143 146 138 145 148 149 88 147 171 181 171
353 348 11 329 339 334 319 323 308 326 337 347 358 344 341 343 1 8 2 355 352 342 351 154 166 175 161 159 166 154 169 140 146 147 153 145 154 163 133 130 103 48 10 187